Regional Weather Roundup
Issued by NWS

Home | Current Version | Previous Version | Text Only | Print | Product List | Glossary Off
Versions: 1 2 3 4 5 6 7 8 9 10 11 12 13 14 15 16 17 18 19 20 21 22 23 24 25 26 27 28 29 30 31 32 33 34 35 36 37 38 39 40 41 42 43 44 45 46 47 48 49 50

991
ASUS43 KDTX 260610
RWRMI
MICHIGAN HOURLY REGIONAL WEATHER ROUNDUP
NATIONAL WEATHER SERVICE DETROIT/PONTIAC MI
200 AM EDT MON SEP 26 2016

NOTE: "FAIR" INDICATES FEW OR NO CLOUDS BELOW 12,000 FEET WITH NO
SIGNIFICANT WEATHER AND/OR OBSTRUCTION TO VISIBILITY.

MIZ047>049-052>055-059>063-066>070-074>076-081>083-260700-
SOUTHEAST LOWER MICHIGAN

CITY           SKY/WX    TMP DP  RH WIND       PRES   REMARKS
ADRIAN         CLOUDY    63  56  78 S7        29.95F
6HR MIN TEMP:  61; 6HR MAX TEMP:  64;

ALMA           CLOUDY    64  55  73 S7        29.89S
ANN ARBOR      HVY RAIN  63  59  87 E7        29.94F FOG
BAD AXE        CLOUDY    60  51  74 S13G20    29.93F
CARO           MOCLDY    62  54  76 SE13G18   29.90F
DETROIT CITY   CLOUDY    65  58  78 SE7       29.96F
6HR MIN TEMP:  63; 6HR MAX TEMP:  65;

DETROIT        CLOUDY    66  58  75 SE5       29.96F
6HR MIN TEMP:  61; 6HR MAX TEMP:  66;

FLINT          CLOUDY    63  58  83 SE14      29.91F
6HR MIN TEMP:  59; 6HR MAX TEMP:  64; 6HR PCP:  0.04;

GROSSE ILE     CLOUDY    71  57  61 S12       29.95F
6HR MIN TEMP:  61; 6HR MAX TEMP:  71;

HILLSDALE      CLOUDY    63  54  72 SE6       29.93F
HOWELL         MOCLDY    63  57  81 SE10      29.91F
6HR MIN TEMP:  60; 6HR MAX TEMP:  63;


CITY           SKY/WX    TMP DP  RH WIND       PRES   REMARKS
JACKSON        PTCLDY    62  58  86 S12       29.91F
6HR MIN TEMP:  62; 6HR MAX TEMP:  66; 6HR PCP: TRACE;

LAMBERTVILLE   CLOUDY    70  52  53 S7        29.95F
6HR MIN TEMP:  63; 6HR MAX TEMP:  70;

LANSING        PTCLDY    65  54  67 S10       29.90F
6HR MIN TEMP:  62; 6HR MAX TEMP:  68;

LAPEER         CLOUDY    61  55  80 SE7G16    29.95F
MASON          CLEAR     62  56  79 S6        29.90F
MONROE         CLOUDY    69  55  60 SE8       29.94F
6HR MIN TEMP:  62; 6HR MAX TEMP:  70;

MT. CLEMENS    MOCLDY    66  59  77 SE12      29.95F
6HR MIN TEMP:  61; 6HR MAX TEMP:  66;

PONTIAC        CLOUDY    64  56  75 SE10      29.94F
6HR MIN TEMP:  61; 6HR MAX TEMP:  65;

PORT HOPE        N/A     63  53  70 SE14G22   29.91F
6HR MIN TEMP:  61; 6HR MAX TEMP:  64;

PORT HURON     PTCLDY    57  52  82 SE9       29.97F
TRI CITIES     CLOUDY    61  55  81 S8        29.88F
6HR MIN TEMP:  60; 6HR MAX TEMP:  65; 6HR PCP:  0.03;

MIDLAND        FAIR      59  52  79 SE3       29.87F
6HR MIN TEMP:  59; 6HR MAX TEMP:  67; 6HR PCP:  0.02;

TROY           CLOUDY    66  55  68 SE5       29.97F
SAGINAW HB     CLOUDY    63  54  72 S10       29.88F
$$
MIZ043>046-050>051-056>058-064>065-071>073-077>080-260700-
SOUTHWEST LOWER MICHIGAN

CITY           SKY/WX    TMP DP  RH WIND       PRES   REMARKS
BATTLE CREEK   MOCLDY    64  57  78 S9        29.92S
6HR MIN TEMP:  63; 6HR MAX TEMP:  72;

BENTON HARBOR  CLOUDY    69  58  67 W12G18    29.93R
6HR MIN TEMP:  69; 6HR MAX TEMP:  77; 6HR PCP:  0.05;

BIG RAPIDS     RAIN      60  58  94 S3        29.87F
6HR MIN TEMP:  60; 6HR MAX TEMP:  68; 6HR PCP:  0.15;

COLDWATER      PTCLDY    63  57  80 S7        29.93S
6HR MIN TEMP:  61; 6HR MAX TEMP:  69;

FREMONT        LGT RAIN  66  65  99 W5        29.87S
HOLLAND        LGT RAIN  69  65  86 W10G18    29.91R
6HR MIN TEMP:  69; 6HR MAX TEMP:  72;

GRAND RAPIDS   CLOUDY    66  58  75 SW12      29.89S
6HR MIN TEMP:  64; 6HR MAX TEMP:  68; 6HR PCP: TRACE;

IONIA          CLOUDY    62  54  75 S12       29.88F
6HR MIN TEMP:  62; 6HR MAX TEMP:  65;

KALAMAZOO      CLOUDY    67  56  67 S7        29.92S
6HR MIN TEMP:  66; 6HR MAX TEMP:  73;

LUDINGTON      RAIN      63  60  89 W6        29.85R
6HR MIN TEMP:  63; 6HR MAX TEMP:  69; 6HR PCP:  0.56;

MARSHALL       PTCLDY    64  57  78 S7        29.91S
6HR MIN TEMP:  64; 6HR MAX TEMP:  68;

MOUNT PLEASANT PTCLDY    61  53  74 CALM      29.87F
MUSKEGON       LGT RAIN  67  62  84 W12       29.89R
6HR MIN TEMP:  67; 6HR MAX TEMP:  72; 6HR PCP:  0.14;

SOUTH HAVEN    LGT RAIN  68  63  83 W9        29.93R
$$
MIZ016>042-260700-
NORTHERN LOWER MICHIGAN

CITY           SKY/WX    TMP DP  RH WIND       PRES   REMARKS
ALPENA         RAIN      59  51  75 S14G24    29.89F
6HR MIN TEMP:  59; 6HR MAX TEMP:  64; 6HR PCP:  0.03;

BEAVER ISLAND  LGT RAIN  62  61  97 SE9       29.77F
6HR MIN TEMP:  61; 6HR MAX TEMP:  67;

BELLAIRE       LGT RAIN  58  56  91 S7        29.84F
6HR MIN TEMP:  58; 6HR MAX TEMP:  69;

CADILLAC       HVY RAIN  57  56  94 S7        29.87S
CHARLEVOIX     RAIN      59  58  96 S9        29.85F
FRANKFORT      LGT RAIN  63  61  93 CALM      29.83S
GAYLORD        RAIN      57  52  83 S12       29.87R
6HR MIN TEMP:  57; 6HR MAX TEMP:  65; 6HR PCP:  0.22;

GRAYLING       RAIN      57  53  86 SE3       29.87S
HARBOR SPRINGS RAIN      59  57  94 S6        29.83F
HOUGHTON LAKE  MOCLDY    56  51  84 SE6       29.88F
6HR MIN TEMP:  56; 6HR MAX TEMP:  65; 6HR PCP:  0.13;

MANISTEE       LGT RAIN  61  61 100 SE3       29.84S
OSCODA         CLOUDY    63  51  65 S12G18    29.91S
6HR MIN TEMP:  63; 6HR MAX TEMP:  65;

PELLSTON       LGT RAIN  59  56  89 SE6       29.83F
6HR MIN TEMP:  59; 6HR MAX TEMP:  67; 6HR PCP:  0.65;

ROGERS CITY    LGT RAIN  59  53  80 S13G22    29.85F
TRAVERSE CITY  RAIN      62  59  90 VRB7      29.83F FOG
6HR MIN TEMP:  62; 6HR MAX TEMP:  71; 6HR PCP:  0.64;

$$
MIZ007>008-015-260700-
EASTERN UPPER MICHIGAN

CITY           SKY/WX    TMP DP  RH WIND       PRES   REMARKS
KINROSS        RAIN      57  56  96 SE20      29.83F
6HR MIN TEMP:  57; 6HR MAX TEMP:  63; 6HR PCP:  0.80;

MACKINAC ISLAN LGT RAIN  58  58 100 S7        29.82F
NEWBERRY       LGT RAIN  60  59  97 SE12      29.76F
6HR MIN TEMP:  58; 6HR MAX TEMP:  60; 6HR PCP:  0.54;

S. S. MARIE    HVY RAIN  60  58  92 SE16G25   29.83F FOG
6HR MIN TEMP:  60; 6HR MAX TEMP:  64; 6HR PCP:  0.44;

MUNISING         N/A     66  64  93 VRB5      29.71F
6HR MIN TEMP:  61; 6HR MAX TEMP:  66; 6HR PCP:  0.30;

$$
MIZ004>006-011>014-085-260700-
CENTRAL UPPER MICHIGAN

CITY           SKY/WX    TMP DP  RH WIND       PRES   REMARKS
MANISTIQUE     CLOUDY    64  62  92 S8        29.73F
6HR MIN TEMP:  63; 6HR MAX TEMP:  65; 6HR PCP:  1.07;

ESCANABA       CLOUDY    61  59  93 W7        29.76S
6HR MIN TEMP:  61; 6HR MAX TEMP:  67; 6HR PCP:  0.07;

MENOMINEE        N/A    N/A N/A N/A MISG        N/A
SAWYER-GWINN   MOCLDY    58  55  92 SW3       29.75S
6HR MIN TEMP:  58; 6HR MAX TEMP:  63; 6HR PCP:  0.08;

$$
MIZ001>003-009>011-084-260700-
WESTERN UPPER MICHIGAN

CITY           SKY/WX    TMP DP  RH WIND       PRES   REMARKS
IRON MOUNTAIN  CLOUDY    58  53  84 W7        29.76F
6HR MIN TEMP:  58; 6HR MAX TEMP:  65; 6HR PCP: TRACE;

HOUGHTON       CLOUDY    58  51  78 W9        29.69F
6HR MIN TEMP:  57; 6HR MAX TEMP:  64;

COPPER HARBOR    N/A     59  55  87 VRB3      29.67F
6HR MIN TEMP:  59; 6HR MAX TEMP:  65;

IRONWOOD       CLOUDY    53  48  83 W18G25    29.76F
6HR MIN TEMP:  53; 6HR MAX TEMP:  62;

$$

ABBREVIATIONS USED IN REMARKS
   TC - TEMPERATURE IN CELSIUS
  WCI - WIND CHILL INDEX
   HX - HEAT INDEX
  VSB - VISIBILITY





USA.gov is the U.S. government's official web portal to all federal, state and local government web resources and services.